Location: ??????????
(48.5701°N, 37.7703°E)
Time: 22:17:08
(UTC+00:00)

CZ-4C R/B - Pass Details

Date: 14 July 2020
Orbit: 409 x 491 km, 97.7° (Epoch: 10 August)

Event Time Altitude Azimuth Distance (km) Brightness Sun altitude
Rises 00:49:08 0° 165° (SSE) 2,379 6.3 -7.5°
Reaches altitude 10° 00:51:09 10° 165° (SSE) 1,507 5.3 -7.3°
Maximum altitude 00:54:22 88° 77° (ENE) 424 2.8 -6.9°
Drops below altitude 10° 00:57:33 10° 347° (NNW) 1,496 6.0 -6.5°
Sets 00:59:33 0° 347° (NNW) 2,359 7.0 -6.3°
